087  
ASUS43 KMKX 231611  
RWRWI  
 
WISCONSIN REGIONAL WEATHER ROUNDUP  
NATIONAL WEATHER SERVICE MILWAUKEE/SULLIVAN WI  
1100 AM CDT THU MAR 23 2017  
 
NOTE: "FAIR" INDICATES FEW OR NO CLOUDS BELOW 12,000 FEET WITH NO  
SIGNIFICANT WEATHER AND/OR S TO VISIBILITY
.  
 
WIZ001-002-006>008-014>016-023>028-231700-  
NORTHWEST WISCONSIN  
 
CITY SKY/WX TMP DP RH WIND PRES REMARKS
 
SUPERIOR ARPT CLOUDY 36 25 65 S7 30.08F WCI 31  
ASHLAND CLOUDY 35 24 64 S7 30.11F WCI 29  
HAYWARD CLOUDY 34 21 59 S12G20 30.09F WCI 25  
SIREN CLOUDY 36 23 60 S13G22 30.08F WCI 27  
CUMBERLAND CLOUDY 32 23 69 SE13 30.10F WCI 22  
RICE LAKE NOT AVBL  
CHETEK CLOUDY 33 23 66 SE16G23 30.12F WCI 23  
LADYSMITH CLOUDY 33 21 61 SE15G22 30.15F WCI 23  
EAU CLAIRE N/A 36 19 50 S14 30.13F WCI 27  
MENOMONIE CLOUDY 37 21 51 SE15 30.13S WCI 28  
NEW RICHMOND CLOUDY 38 21 51 S13G23 30.10S WCI 30  
OSCEOLA CLOUDY 38 23 53 S17G23 30.11F WCI 29  

 
 
WIZ003>005-009-010-017-018-231700-  
NORTH CENTRAL WISCONSIN  
 
CITY SKY/WX TMP DP RH WIND PRES REMARKS
 
MANITOWISH WTR CLOUDY 29 21 71 S13G21 30.13F WCI 19  
ARBOR VITAE CLOUDY 32 23 69 S14G21 30.14F WCI 22  
WOODRUFF CLOUDY 32 23 69 S14G21 30.14F WCI 22  
RHINELANDER CLOUDY 30 21 69 SE10 30.17F WCI 21  
EAGLE RIVER CLOUDY 28 21 75 S13 30.17F WCI 18  
LAND O LAKES CLOUDY 29 24 81 S7 30.18F WCI 22  
PHILLIPS CLOUDY 31 21 65 S12 30.14F WCI 22  
TOMAHAWK CLOUDY 29 21 72 SE5 30.18F WCI 24  
MEDFORD CLOUDY 32 20 63 SE14G21 30.16F WCI 22  
MERRILL CLOUDY 30 21 69 SE9 30.21F WCI 22  

 
 
WIZ029-030-035-036-043>047-231700-  
CENTRAL WISCONSIN  
 
CITY SKY/WX TMP DP RH WIND PRES REMARKS
 
WAUSAU CLOUDY 33 21 61 SE17 30.21F WCI 22  
MOSINEE CLOUDY 32 23 69 SE14 30.23F WCI 22  
MARSHFIELD CLOUDY 34 21 59 S13 30.19F WCI 25  
STEVENS POINT CLOUDY 32 21 65 SE13 30.24F WCI 22  
WAUPACA CLOUDY 37 23 58 SE10G17 30.28F WCI 29  
WAUTOMA CLOUDY 37 22 54 SE15 30.27F WCI 28  
WISC RAPIDS CLOUDY 36 22 56 S13G22 30.25F WCI 27  
CAMP DOUGLAS CLOUDY 37 21 52 SE10G18 30.22F WCI 30  

 
 
WIZ011>013-019>022-031-037>040-048>050-231700-  
NORTHEAST WISCONSIN  
 
CITY SKY/WX TMP DP RH WIND PRES REMARKS
 
ANTIGO CLOUDY 29 22 77 SE17 30.22F WCI 16  
SHAWANO CLOUDY 34 25 68 SE6 30.31F WCI 29  
OCONTO CLOUDY 34 26 71 S8 30.33F WCI 27  
STURGEON BAY CLOUDY 35 25 66 S15G21 30.34F WCI 25  
GREEN BAY CLOUDY 36 27 69 S18 30.32F WCI 26  
MANITOWOC CLOUDY 35 25 66 S16G26 30.36F WCI 25  
APPLETON CLOUDY 34 21 60 SE16 N/A WCI 23  
CLINTONVILLE CLOUDY 34 23 64 S12 30.29F WCI 25  
OSHKOSH CLOUDY 36 24 62 SE15 30.29F WCI 27  

 
 
WIZ032>034-041-042-053>061-231700-  
SOUTHWEST WISCONSIN  
 
CITY SKY/WX TMP DP RH WIND PRES REMARKS
 
LA CROSSE CLOUDY 39 21 48 SE15G24 30.18F WCI 31  
SPARTA CLOUDY 37 21 52 S13 30.21F WCI 29  
VIROQUA CLOUDY 35 22 58 SE15G22 30.18F WCI 25  
BOSCOBEL CLOUDY 41 22 46 VRB3 30.23F  
PRAIRIE DU CHI CLOUDY 38 21 49 SE9G17 30.21F WCI 32  
PLATTEVILLE CLOUDY 38 24 57 SE15 30.24F WCI 29  

 
 
WIZ056-057-062-063-064-067-068-231700-  
SOUTH CENTRAL WISCONSIN  
 
CITY SKY/WX TMP DP RH WIND PRES REMARKS
 
REEDSBURG CLOUDY 36 22 56 SE7 30.26S WCI 31  
BARABOO/DELLS CLOUDY 36 22 57 S14 30.26F WCI 27  
LONE ROCK CLOUDY 39 21 48 SE14 30.25F WCI 31  
MINERAL POINT CLOUDY 39 23 52 SE13 30.23F WCI 32  
MADISON CLOUDY 37 20 50 S21 30.29S WCI 26  
MIDDLETON CLOUDY 39 23 53 S17 30.28F WCI 30  
WATERTOWN CLOUDY 37 22 54 SE15 30.31F WCI 28  
MONROE CLOUDY 41 23 48 SE17 30.27F  
JANESVILLE MOSUNNY 43 21 42 SE16 30.32F  

 
 
WIZ051-052-058>065-066-070>072-231700-  
SOUTHEAST WISCONSIN  
 
CITY SKY/WX TMP DP RH WIND PRES REMARKS
 
MILWAUKEE CLOUDY 38 21 50 S21 30.36F WCI 28  
WAUKESHA PTSUNNY 36 21 55 SE12 30.34F WCI 27  
MILWAUKEE/TIMM CLOUDY 36 19 51 SE14 30.36F WCI 27  
RACINE CLOUDY 37 22 54 S20G28 30.39F WCI 27  
KENOSHA CLOUDY 37 23 56 SE18 30.37F WCI 27  
FOND DU LAC CLOUDY 36 23 59 S17G24 30.31F WCI 26  
SHEBOYGAN CLOUDY 34 24 67 S18G26 30.36S WCI 23  
WEST BEND CLOUDY 36 25 64 SE9 30.33F WCI 29  
JUNEAU CLOUDY 36 23 59 SE16 30.32F WCI 26  

 
 
LSZ147-162-231700-  
LAKE SUPERIOR  
 
STATION/POSITION TIME TEMP WIND PRES WAVE
 
AIR SEA DIR/SP/G HT/PER  
(UTC) (F) (DEG/KT/KT) (MB) (FT/S)  
DEVILS ISLAND 1600 33 190/ 8/ 11 1020.6F  
PORT WING 1540 35 180/ 7/ 14 1019.3F  
SAXON HARBOR 1540 35 190/ 9/ 17 1019.6F  

 
 
LMZ867-665-643>646-231700-  
LAKE MICHIGAN  
 
STATION/POSITION TIME TEMP WIND PRES WAVE
 
AIR SEA DIR/SP/G HT/PER  
(UTC) (F) (DEG/KT/KT) (MB) (FT/S)  
CHAMBERS ISLAND 1540 35 160/ 6/ 11 1027.4F  
NORTHPORT PIER 1540 35 160/ 8/ 15 1028.1F  
SISTER BAY 1550 37 210/ 18/ 22 N/A  
KEWAUNEE LAKESHO 1548 35 170/ 19/ 23 1027.4F  
SHEBOYGAN LAKESH 1600 34 160/ 26/ 27 1028.3F  
PORT WASHINGTON 1530 35 180/ 18/ 24 1029.1F  
MILWAUKEE LAKESH 1550 34 150/ 20/ 22 N/A  
KENOSHA LAKESH 1600 34 160/ 22/ 24 1028.4  

 
 
TC - TEMPERATURE IN CELSIUS  
VSB - VISIBILITY IN STATUTE MILES  
WCI - WIND CHILL INDEX  
HX - HEAT INDEX  
 
 
 
CLICK HERE TO GO TO PREVIOUS BULLETINS.

The Nexlab WI Page Main Text Page